Lockhart, AL

5:48 AM CDT on July 30, 2016 (GMT -0500)
Florala

Weather History for K0J4 - March, 2014

Change the Weather History Date:

Monday, March 3, 2014

  Actual Average (KCEW) Record (KCEW)
Temperature  
Mean Temperature 53 °F -  
Max Temperature 69 °F 70 °F 84 °F (1997)
Min Temperature 37 °F 49 °F 18 °F (1980)
Degree Days  
Heating Degree Days 12    
Growing Degree Days 3 (Base 50)    
Moisture  
Dew Point 51 °F    
Average Humidity 85    
Maximum Humidity 96    
Minimum Humidity 66    
Precipitation  
Precipitation 0.01 in - - ()
Sea Level Pressure  
Sea Level Pressure 30.02 in    
Wind  
Wind Speed 8 mph (WSW)    
Max Wind Speed 14 mph    
Max Gust Speed 25 mph    
Visibility 8 miles    
Events Rain    
Averages and records for this station are not official NWS values.
T = Trace of Precipitation, MM = Missing Value Source: NWS Daily Summary

Daily Weather History Graph

Daily Weather History Graph

Search for Another Location

Airport or City:

Trip Planner

Search our weather history database for the weather conditions in past years. The results will help you decide how hot, cold, wet, or windy it might be!

Date:

Astronomy

Mar. 03, 2014 Rise Set
Actual Time 6:09 AM CST 5:45 PM CST
Civil Twilight 5:45 AM CST 6:09 PM CST
Nautical Twilight 5:17 AM CST 6:37 PM CST
Astronomical Twilight 4:49 AM CST 7:05 PM CST
Moon 7:29 AM CST (3/3) 8:32 PM CST (3/3)
Length of Visible Light 12h 24m
Length of Day
11h 35m
Waxing Crescent, 8% of the Moon is Illuminated
Mar 3
Waxing Crescent
Mar 8
First Quarter
Mar 16
Full
Mar 23
Last Quarter
Mar 30
New

Hourly Weather History & Observations

Time (CST) Temp. Windchill Dew Point Humidity Pressure Visibility Wind Dir Wind Speed Gust Speed Precip Events Conditions
12:36 AM 60.8 °F - 57.2 °F 88% 30.01 in 8.0 mi SW 6.9 mph - N/A   Overcast
12:58 AM 60.1 °F - 57.9 °F 93% 30.00 in 9.0 mi SW 4.6 mph - N/A   Overcast
1:58 AM 60.1 °F - 57.9 °F 93% 29.99 in 7.0 mi SSW 3.5 mph - N/A   Mostly Cloudy
2:50 AM 59.0 °F - 57.2 °F 94% 29.96 in 2.0 mi South 6.9 mph - N/A   Overcast
2:58 AM 59.0 °F - 57.9 °F 96% 29.94 in 1.0 mi South 5.8 mph - N/A   Overcast
3:03 AM 59.0 °F - 57.2 °F 94% 29.95 in 0.8 mi South 8.1 mph - N/A   Overcast
3:11 AM 59.0 °F - 57.2 °F 94% 29.96 in 1.2 mi SSW 5.8 mph - N/A   Overcast
3:17 AM 59.0 °F - 57.2 °F 94% 29.96 in 2.5 mi SSW 6.9 mph - N/A   Overcast
3:21 AM 59.0 °F - 57.2 °F 94% 29.96 in 3.0 mi SSW 6.9 mph - N/A   Overcast
3:42 AM 59.0 °F - 57.2 °F 94% 29.96 in 1.8 mi SSW 8.1 mph - N/A   Overcast
3:58 AM 59.0 °F - 57.9 °F 96% 29.95 in 2.0 mi SSW 8.1 mph - N/A   Overcast
4:04 AM 59.0 °F - 57.2 °F 94% 29.95 in 4.0 mi SSW 8.1 mph - N/A   Overcast
4:58 AM 59.0 °F - 57.9 °F 96% 29.94 in 7.0 mi SSW 9.2 mph - N/A   Mostly Cloudy
5:58 AM 61.0 °F - 59.0 °F 93% 29.95 in 9.0 mi SSW 13.8 mph - N/A   Mostly Cloudy
6:36 AM 62.6 °F - 60.8 °F 94% 29.95 in 9.0 mi SSW 12.7 mph - N/A   Overcast
6:58 AM 63.0 °F - 60.1 °F 90% 29.95 in 10.0 mi SSW 12.7 mph - N/A   Overcast
7:58 AM 64.0 °F - 61.0 °F 90% 29.96 in 10.0 mi SSW 13.8 mph 20.7 mph 0.00 in Rain Light Rain
8:12 AM 64.4 °F - 62.6 °F 94% 29.96 in 10.0 mi SSW 11.5 mph - 0.00 in   Overcast
8:39 AM 69.8 °F - 62.6 °F 78% 29.95 in 10.0 mi SW 12.7 mph 25.3 mph 0.00 in   Mostly Cloudy
8:58 AM 68.0 °F - 63.0 °F 84% 29.96 in 10.0 mi SW 11.5 mph 19.6 mph 0.00 in   Overcast
9:22 AM 69.8 °F - 62.6 °F 78% 29.97 in 10.0 mi SW 9.2 mph 19.6 mph N/A   Overcast
9:46 AM 69.8 °F - 62.6 °F 78% 29.97 in 10.0 mi SW 9.2 mph 19.6 mph N/A   Overcast
9:58 AM 68.0 °F - 63.0 °F 84% 29.97 in 8.0 mi Variable 6.9 mph - 0.00 in Rain Light Rain
10:27 AM 66.2 °F - 64.4 °F 94% 29.98 in 5.0 mi Variable 3.5 mph - 0.00 in Rain Light Rain
10:34 AM 66.2 °F - 62.6 °F 88% 29.99 in 4.0 mi Variable 4.6 mph - 0.01 in Rain Light Rain
10:51 AM 57.2 °F - 55.4 °F 94% 30.02 in 10.0 mi NNW 12.7 mph 24.2 mph 0.01 in Rain Light Rain
10:58 AM 55.9 °F - 53.1 °F 90% 30.03 in 10.0 mi Variable 6.9 mph 21.9 mph 0.01 in   Overcast
11:06 AM 55.4 °F - 51.8 °F 88% 30.04 in 10.0 mi NNW 11.5 mph 20.7 mph N/A   Overcast
11:58 AM 52.0 °F - 46.9 °F 83% 30.04 in 10.0 mi NNW 8.1 mph 18.4 mph 0.00 in   Overcast
12:04 PM 53.6 °F - 46.4 °F 77% 30.04 in 10.0 mi North 9.2 mph 17.3 mph N/A   Overcast
12:58 PM 55.0 °F - 46.0 °F 72% 30.04 in 10.0 mi North 9.2 mph - N/A   Overcast
1:33 PM 55.4 °F - 44.6 °F 67% 30.03 in 10.0 mi NW 9.2 mph - N/A   Overcast
1:58 PM 54.0 °F - 43.0 °F 66% 30.04 in 10.0 mi NNW 8.1 mph 17.3 mph N/A   Mostly Cloudy
2:58 PM 51.1 °F - 41.0 °F 68% 30.05 in 10.0 mi NNW 5.8 mph - N/A   Overcast
3:58 PM 48.9 °F - 39.9 °F 71% 30.07 in 10.0 mi NNW 8.1 mph - N/A   Overcast
4:58 PM 46.0 °F 41.0 °F 37.9 °F 73% 30.09 in 10.0 mi North 10.4 mph - N/A   Overcast
5:14 PM 44.6 °F 39.2 °F 37.4 °F 76% 30.10 in 10.0 mi North 10.4 mph - N/A   Overcast
5:58 PM 43.0 °F 38.2 °F 36.0 °F 76% 30.11 in 10.0 mi North 8.1 mph - N/A   Overcast
6:58 PM 41.0 °F 35.2 °F 35.1 °F 79% 30.12 in 10.0 mi North 9.2 mph 20.7 mph N/A   Overcast
7:58 PM 39.9 °F 33.9 °F 33.1 °F 77% 30.14 in 10.0 mi North 9.2 mph - N/A   Overcast
8:58 PM 39.0 °F 32.8 °F 33.1 °F 79% 30.15 in 10.0 mi North 9.2 mph 17.3 mph N/A   Overcast
9:58 PM 37.9 °F 30.9 °F 32.0 °F 79% 30.17 in 10.0 mi NNE 10.4 mph 18.4 mph N/A   Overcast
10:58 PM 37.9 °F 32.7 °F 30.9 °F 76% 30.17 in 10.0 mi Variable 6.9 mph - N/A   Overcast
11:58 PM 37.0 °F 31.6 °F 30.9 °F 79% 30.14 in 10.0 mi North 6.9 mph - N/A   Overcast